User: anonymous   Login
Location: Cabeza de los Veneras
(40.2000°N, 5.2000°W)
Time: 05:10:57
(UTC+00:00)
Language:

Terra - Orbit

View from above orbital plane
View from above orbital plane
View from above satellite
View from above satellite

Ground track
Ground track

The orbit data is extracted from the following two-line orbital elements,

1 25994U 99068A   24173.96666728  .00000632  00000-0  14171-3 0  9996
2 25994  98.0479 237.3140 0002094  30.3736  93.4702 14.59821471303749
Epoch (UTC): 21 June 2024 23:12:00
Eccentricity: 0.0002094
inclination: 98.0479°
perigee height: 692 km
apogee height: 695 km
right ascension of ascending node: 237.3140°
argument of perigee: 30.3736°
revolutions per day: 14.59821471
mean anomaly at epoch: 93.4702°
orbit number at epoch: 30374

The dashed part of the orbit path shows where the satellite is in the earth's shadow,  

DLR